www.pogodaiklimat.ru

ПОГОДА в Кампо, CA

  • Прогноз погоды в Кампо
  • Монитор погоды в Кампо
  • Климат в Кампо

АРХИВ ПОГОДЫ в Кампо

Время (UTC), дата Ветер
(напр.,м/с)
 
Видим.   Явления Облачность Т
(С)
Тd
(С)
f
(%)
Тe
(С)
Тes
(С)
Комфортность

P
(гПа)

Po
(гПа)
Тmin
(С)
Tmax
(С)
R
(мм)
SD
(см)
21:52 24.03 ЮЗ  н/о    н/о  +20.0  +7.2  43  +20  +20    1017.2  925.0         
22:52 24.03 ЮЗ  н/о    н/о  +20.0  +6.7  42  +21  +21  комфорт  1017.1  924.7  +14.4  +20.6     
23:52 24.03 ЮЗ  н/о    н/о  +17.8  +9.4  58  +17  +17    1017.8  925.0         
00:52 25.03 Ю  н/о    н/о  +14.4  +10.0  75  +13  +13    1018.6  925.6         
01:52 25.03 С  н/о    н/о  +11.7  +8.3  80  +11  +11    1019.3  925.9         
02:52 25.03   н/о    н/о  +10.6  +7.8  83  +10  +10    1019.6  926.6         
03:52 25.03 СВ  н/о    н/о  +7.8  +4.4  79  +6  +6    1019.9  926.9         
04:52 25.03 С  н/о    н/о  +6.7  +2.2  73  +5  +5    1019.3  926.6  +6.7  +20.0     
05:52 25.03 СВ  н/о    н/о  +4.4  +0.6  76  +1  +1    1019.0  926.2         
06:52 25.03 СВ  н/о    н/о  +5.0  0.0  70  +2  +2    1018.8  926.2         
07:52 25.03 С  н/о    н/о  +3.9  -0.6  72  +2  +2    1018.4  925.9         
08:52 25.03 СВ  н/о    н/о  +3.9  -1.1  70  +1  +1    1017.9  925.6         
09:52 25.03   н/о    н/о  +5.0  -1.1  65  +4  +4    1017.4  925.3         
10:52 25.03 С  н/о    н/о  +2.8  -1.7  72  -1  -1    1017.2  925.0  +2.8  +7.2     
11:52 25.03 СВ  н/о    н/о  +3.9  -1.7  67  +1  +1    1017.2  925.0         
12:52 25.03 С  н/о    н/о  +4.4  -1.7  65  +2  +2    1017.9  925.3         
13:52 25.03   н/о    н/о  +9.4  -0.6  50  +9  +9    1018.2  925.6         
14:52 25.03   н/о    н/о  +16.7  +3.3  41  +17  +17    1017.8  925.6         
15:52 25.03 В  н/о    н/о  +20.0  -1.1  24  +20  +20    1017.9  925.9         
16:52 25.03 В  н/о    н/о  +21.7  -2.2  20  +21  +21  комфорт  1017.7  925.6  +2.2  +21.7     
17:52 25.03 В  н/о    н/о  +22.8  -3.3  17  +21  +21  комфорт  1017.3  925.3         
18:52 25.03 нст  н/о    н/о  +23.3  -5.0  15  +21  +21  комфорт  1016.6  924.7         
19:52 25.03 ЮЗ  н/о    н/о  +22.8  +3.3  28  +23  +23  комфорт  1016.3  924.4         
20:52 25.03 ЮЗ  н/о    н/о  +22.2  +6.7  37  +23  +23  комфорт  1015.9  923.8         
21:52 25.03 ЮЗ  н/о    н/о  +21.7  +6.1  36  +22  +22  комфорт  1015.8  923.8         
22:52 25.03 ЮЗ  н/о    н/о  +21.1  +6.7  39  +22  +22  комфорт  1015.7  923.5  +21.1  +24.4     
23:52 25.03 З  н/о    н/о  +20.6  +6.1  39  +22  +22  комфорт  1015.7  923.5         
00:52 26.03 ЮЗ  н/о    н/о  +16.7  +8.3  58  +16  +16    1015.8  923.5         
01:52 26.03 В  н/о    н/о  +12.8  +6.7  66  +12  +12    1016.1  923.8         
02:52 26.03 СВ  н/о    н/о  +10.6  +6.1  74  +9  +9    1016.1  924.1         
03:52 26.03 В  н/о    н/о  +8.9  +5.0  77  +6  +6    1016.2  924.4         
04:52 26.03 СВ  н/о    н/о  +8.3  +4.4  76  +6  +6    1015.9  924.1  +7.8  +21.1     
05:52 26.03 СВ  н/о    н/о  +7.2  +2.8  74  +5  +5    1015.7  924.1         
06:52 26.03 СВ  н/о    н/о  +5.6  +2.2  79  +2  +2    1015.2  923.5         
07:52 26.03 СВ  н/о    н/о  +6.1  +1.1  70  +3  +3    1014.9  923.2         
08:52 26.03 СВ  н/о    н/о  +4.4  0.0  73  +1  +1    1014.4  922.6         
09:52 26.03 СВ  н/о    н/о  +3.3  -1.1  73  -1  -1    1014.0  922.3         
10:52 26.03 СВ  н/о    н/о  +4.4  -1.7  65  +1  +1    1013.7  921.9  +1.7  +8.3     
11:52 26.03 В  н/о    н/о  +3.9  -2.2  64  +1  +1    1013.8  921.9         
12:52 26.03 СВ  н/о    н/о  +4.4  -2.8  59  +1  +1    1014.3  922.3         
13:52 26.03 СВ  н/о    н/о  +6.1  -1.7  57  +3  +3    1014.6  922.3         
14:52 26.03   н/о    н/о  +11.7  +1.7  50  +12  +12    1014.5  922.6         
15:52 26.03   н/о    н/о  +15.6  -2.2  29  +16  +16    1014.8  922.9         
16:52 26.03 ЮЗ  н/о    н/о  +19.4  -3.3  21  +19  +19    1014.6  922.9  +1.7  +19.4     
17:52 26.03 ЮЗ  н/о    н/о  +19.4  -1.1  25  +19  +19    1014.7  922.9         
18:52 26.03 ЮЗ  н/о    н/о  +20.6  0.0  25  +21  +21  комфорт  1014.0  922.3         
19:52 26.03 ЮЗ  н/о    н/о  +21.7  -5.6  16  +20  +20    1013.9  922.3         
20:52 26.03 ЮЗ  н/о    н/о  +21.7  -1.1  22  +21  +21  комфорт  1013.4  921.6         

 

Местоположение метеостанции Campo: широта 32.6261 долгота -116.4683 высота над уровнем моря 807 м.

В архиве по умолчанию представлена погода в Кампо за последние 1-2 суток. Обновление информации о фактической погоде в базе происходит ежечасно! Архивные данные за месяц целиком и за предыдущие месяцы Вы можете получить, выбрав интересующий диапазон дат из раскрывающегося списка и нажав кнопку "Ввод!".

Внимание! Архив погоды МЕТАР в базе сайта хранится не более 60 дней. Нет смысла пытаться выбрать более раннюю дату.

Внимание! Время в таблицах - всемирное. Для получения местного времени необходимо прибавить поправку, которая в Кампо равна -8 ч.

Ветер - указаны скорость ветра в м/с и направление, откуда дует ветер: С - северный, СВ - северо-восточный, В - восточный, ЮВ - юго-восточный, Ю - южный, ЮЗ - юго-западный, З - западный, СЗ - северо-западный.
Видимость - горизонтальная дальность видимости в метрах или километрах. При видимости от 1 до 10 км при отсутствии осадков обычно наблюдается дымка, при ухудшении видимости до 1 км и менее - туман. В сухую погоду видимость может ухудшаться дымом, пылью или мглою.
Атмосферные явления - указаны явления, наблюдавшиеся в указанный момент времени.
Облачность - указаны через наклонную черту верхняя и нижняя облачность в баллах и высота нижней границы облаков в метрах. Внимание: облачность, как и прочие метеорологические величины в США измеряются автоматическими метеостанциями. Указанные значения в баллах носят условный характер и показывают процент времени, в течение которого, в среднем, лазерный луч высотомера отражался от облаков обратно.
T - Температура воздуха - температура, измеренная на высоте 2 м над землей.
Td - Температура точки росы - температура, при понижении до которой содержащийся в воздухе водяной пар достигнет насыщения.
f - Относительная влажность воздуха - влажноcть воздуха, измеренная на высоте 2 м над землей.
Te - Эффективная температура - температура, которую ощущает одетый по сезону человек в тени. Характеристика душности погоды. При расчете учитывается влияние влажности воздуха и скорости ветра на теплоощущения человека.
Tes - Эффективная температура на солнце - температура, которую ощущает человек, с поправкой на солнечный нагрев. Характеристика знойности погоды. Зависит от высоты солнца над горизонтом, облачности и скорости ветра. Ночью, в пасмурную погоду, а также при ветре 12 м/с и более поправка равна нулю.
P - Атмосферное давление - приведенное к уровню моря атмосферное давление.
Po - Атмосферное давление - измеренное на уровне метеостанции атмосферное давление.
Tmin - Минимальная температура - минимум температуры воздуха на высоте 2 м над землей.
Tmax - Максимальная температура - максимум температуры воздуха на высоте 2 м над землей.
R - Количество осадков - Количество выпавших осадков за 3 или 6 часов, мм.
SD - Снежный покров - Высота снежного покрова, см.